TimeEST,TemperatureF,Dew PointF,Humidity,Sea Level PressureIn,VisibilityMPH,Wind Direction,Wind SpeedMPH,Gust SpeedMPH,PrecipitationIn,Events,Conditions,WindDirDegrees,DateUTC
12:51 AM,24.1,7.0,48,30.25,10.0,West,17.3,21.9,N/A,,Partly Cloudy,270,2013-02-02 05:51:00
1:51 AM,23.0,6.1,48,30.27,10.0,West,18.4,26.5,N/A,,Scattered Clouds,280,2013-02-02 06:51:00
2:51 AM,21.9,6.1,51,30.29,10.0,West,13.8,-,N/A,,Scattered Clouds,270,2013-02-02 07:51:00
3:51 AM,21.9,6.1,51,30.29,10.0,West,16.1,21.9,N/A,,Clear,270,2013-02-02 08:51:00
4:51 AM,21.0,5.0,50,30.29,10.0,West,15.0,20.7,N/A,,Clear,280,2013-02-02 09:51:00
5:51 AM,19.9,5.0,52,30.29,10.0,WNW,11.5,-,N/A,,Clear,290,2013-02-02 10:51:00
6:51 AM,19.9,5.0,52,30.30,10.0,WNW,11.5,-,N/A,,Partly Cloudy,290,2013-02-02 11:51:00
7:51 AM,21.0,5.0,50,30.32,10.0,West,10.4,-,N/A,,Scattered Clouds,280,2013-02-02 12:51:00
8:51 AM,21.9,6.1,51,30.32,10.0,West,11.5,-,N/A,,Scattered Clouds,260,2013-02-02 13:51:00
9:51 AM,24.1,7.0,48,30.30,10.0,WSW,8.1,-,N/A,,Scattered Clouds,250,2013-02-02 14:51:00
10:51 AM,25.0,8.1,49,30.28,10.0,WSW,9.2,-,N/A,,Scattered Clouds,240,2013-02-02 15:51:00
11:51 AM,27.0,9.0,47,30.25,10.0,WSW,12.7,-,N/A,,Mostly Cloudy,240,2013-02-02 16:51:00
12:51 PM,28.0,7.0,41,30.22,10.0,SSW,13.8,18.4,N/A,,Mostly Cloudy,210,2013-02-02 17:51:00
1:51 PM,30.9,3.9,32,30.18,10.0,SW,17.3,20.7,N/A,,Mostly Cloudy,230,2013-02-02 18:51:00
2:51 PM,28.9,3.9,35,30.16,10.0,WSW,15.0,20.7,N/A,,Mostly Cloudy,240,2013-02-02 19:51:00
3:51 PM,28.9,5.0,36,30.14,10.0,WSW,17.3,-,N/A,,Overcast,240,2013-02-02 20:51:00
4:51 PM,28.9,6.1,38,30.12,10.0,WSW,11.5,-,N/A,,Overcast,240,2013-02-02 21:51:00
5:51 PM,28.0,7.0,41,30.12,10.0,SW,13.8,-,N/A,,Overcast,230,2013-02-02 22:51:00
6:51 PM,28.9,7.0,40,30.12,10.0,SW,17.3,-,N/A,,Overcast,230,2013-02-02 23:51:00
7:51 PM,28.0,10.0,47,30.11,10.0,SW,15.0,-,0.00,Snow,Light Snow,230,2013-02-03 00:51:00
8:51 PM,27.0,14.0,58,30.11,10.0,WSW,16.1,-,0.00,Snow,Light Snow,250,2013-02-03 01:51:00
9:51 PM,26.1,16.0,66,30.12,5.0,WSW,11.5,-,0.00,Snow,Light Snow,250,2013-02-03 02:51:00
10:41 PM,24.8,19.4,80,30.11,2.0,WSW,11.5,-,0.00,Snow,Light Snow,240,2013-02-03 03:41:00
10:51 PM,25.0,19.9,81,30.11,2.0,WSW,9.2,-,0.01,Snow,Light Snow,240,2013-02-03 03:51:00
11:22 PM,24.8,21.2,86,30.09,1.8,West,6.9,-,0.00,Snow,Light Snow,260,2013-02-03 04:22:00
11:51 PM,25.0,21.9,88,30.08,2.0,West,3.5,-,0.01,Snow,Light Snow,280,2013-02-03 04:51:00